Time,TemperatureF,DewpointF,PressureIn,WindDirection,WindDirectionDegrees,WindSpeedMPH,WindSpeedGustMPH,Humidity,HourlyPrecipIn,Conditions,Clouds,dailyrainin,SoftwareType,DateUTC
2013-03-28 00:00:00,32.3,25.3,30.20,NW,323,0.0,0.0,75,0.00,,,0.00,Wunderground v.1.15,2013-03-28 04:00:00,
2013-03-28 00:02:00,32.4,25.4,30.20,NW,323,0.0,0.0,75,0.00,,,0.00,Wunderground v.1.15,2013-03-28 04:02:00,
2013-03-28 00:08:00,32.3,25.6,30.20,NW,323,0.0,0.0,76,0.00,,,0.00,Wunderground v.1.15,2013-03-28 04:08:00,
2013-03-28 00:12:00,32.2,25.2,30.20,NW,323,0.0,0.0,75,0.00,,,0.00,Wunderground v.1.15,2013-03-28 04:12:00,
2013-03-28 00:14:00,32.2,25.2,30.20,NW,323,0.0,0.0,75,0.00,,,0.00,Wunderground v.1.15,2013-03-28 04:14:00,
2013-03-28 00:20:00,32.2,25.5,30.20,NW,323,0.0,0.0,76,0.00,,,0.00,Wunderground v.1.15,2013-03-28 04:20:00,
2013-03-28 00:26:00,32.4,26.0,30.20,NW,321,0.0,0.0,77,0.00,,,0.00,Wunderground v.1.15,2013-03-28 04:26:00,
2013-03-28 00:32:00,32.5,25.8,30.20,NW,321,0.0,0.0,76,0.00,,,0.00,Wunderground v.1.15,2013-03-28 04:32:00,
2013-03-28 00:38:00,32.8,25.7,30.20,NW,321,0.0,0.0,75,0.00,,,0.00,Wunderground v.1.15,2013-03-28 04:38:00,
2013-03-28 00:44:00,32.8,25.7,30.20,NW,321,0.0,0.0,75,0.00,,,0.00,Wunderground v.1.15,2013-03-28 04:44:00,
2013-03-28 00:50:00,32.7,26.0,30.20,NW,321,0.0,0.0,76,0.00,,,0.00,Wunderground v.1.15,2013-03-28 04:50:00,
2013-03-28 00:56:00,32.6,25.6,30.20,NW,321,0.0,0.0,75,0.00,,,0.00,Wunderground v.1.15,2013-03-28 04:56:00,
2013-03-28 01:02:00,32.5,25.5,30.20,NW,321,0.0,0.0,75,0.00,,,0.00,Wunderground v.1.15,2013-03-28 05:02:00,
2013-03-28 01:08:00,32.4,25.4,30.20,NW,321,0.0,0.0,75,0.00,,,0.00,Wunderground v.1.15,2013-03-28 05:08:00,
2013-03-28 01:14:00,32.3,25.3,30.20,NW,321,0.0,0.0,75,0.00,,,0.00,Wunderground v.1.15,2013-03-28 05:14:00,
2013-03-28 01:20:00,32.1,25.4,30.20,NW,321,0.0,0.0,76,0.00,,,0.00,Wunderground v.1.15,2013-03-28 05:20:00,
2013-03-28 01:26:00,32.0,25.6,30.20,NW,321,0.0,0.0,77,0.00,,,0.00,Wunderground v.1.15,2013-03-28 05:26:00,
2013-03-28 01:32:00,31.8,25.4,30.20,NW,321,0.0,0.0,77,0.00,,,0.00,Wunderground v.1.15,2013-03-28 05:32:00,
2013-03-28 01:38:00,31.6,25.5,30.20,NW,321,0.0,0.0,78,0.00,,,0.00,Wunderground v.1.15,2013-03-28 05:38:00,
2013-03-28 01:44:00,31.4,25.3,30.20,NW,321,0.0,0.0,78,0.00,,,0.00,Wunderground v.1.15,2013-03-28 05:44:00,
2013-03-28 01:50:00,31.2,25.4,30.20,NW,321,0.0,0.0,79,0.00,,,0.00,Wunderground v.1.15,2013-03-28 05:50:00,
2013-03-28 01:56:00,31.1,25.3,30.20,NW,321,0.0,0.0,79,0.00,,,0.00,Wunderground v.1.15,2013-03-28 05:56:00,
2013-03-28 02:02:00,31.0,25.6,30.20,NW,321,0.0,0.0,80,0.00,,,0.00,Wunderground v.1.15,2013-03-28 06:02:00,
2013-03-28 02:08:00,30.9,25.8,30.20,NW,321,0.0,0.0,81,0.00,,,0.00,Wunderground v.1.15,2013-03-28 06:08:00,
2013-03-28 02:14:00,30.7,25.9,30.20,NW,321,0.0,0.0,82,0.00,,,0.00,Wunderground v.1.15,2013-03-28 06:14:00,
2013-03-28 02:20:00,30.6,25.5,30.20,NW,321,0.0,0.0,81,0.00,,,0.00,Wunderground v.1.15,2013-03-28 06:20:00,
2013-03-28 02:26:00,30.4,25.3,30.20,NW,321,0.0,0.0,81,0.00,,,0.00,Wunderground v.1.15,2013-03-28 06:26:00,
2013-03-28 02:32:00,30.3,25.2,30.20,NW,321,0.0,0.0,81,0.00,,,0.00,Wunderground v.1.15,2013-03-28 06:32:00,
2013-03-28 02:38:00,30.2,25.1,30.20,NW,321,0.0,0.0,81,0.00,,,0.00,Wunderground v.1.15,2013-03-28 06:38:00,
2013-03-28 02:44:00,30.1,25.3,30.19,NW,321,0.0,0.0,82,0.00,,,0.00,Wunderground v.1.15,2013-03-28 06:44:00,
2013-03-28 02:50:00,30.0,25.5,30.19,NW,321,0.0,0.0,83,0.00,,,0.00,Wunderground v.1.15,2013-03-28 06:50:00,
2013-03-28 02:56:00,29.9,25.4,30.19,NW,321,0.0,0.0,83,0.00,,,0.00,Wunderground v.1.15,2013-03-28 06:56:00,
2013-03-28 03:02:00,29.8,25.0,30.19,NW,321,0.0,0.0,82,0.00,,,0.00,Wunderground v.1.15,2013-03-28 07:02:00,
2013-03-28 03:08:00,29.8,25.3,30.19,NW,321,0.0,0.0,83,0.00,,,0.00,Wunderground v.1.15,2013-03-28 07:08:00,
2013-03-28 03:14:00,29.7,25.2,30.19,NW,321,0.0,0.0,83,0.00,,,0.00,Wunderground v.1.15,2013-03-28 07:14:00,
2013-03-28 03:20:00,29.7,25.5,30.19,NW,321,0.0,0.0,84,0.00,,,0.00,Wunderground v.1.15,2013-03-28 07:20:00,
2013-03-28 03:26:00,29.7,25.5,30.19,NW,321,0.0,0.0,84,0.00,,,0.00,Wunderground v.1.15,2013-03-28 07:26:00,
2013-03-28 03:32:00,29.7,25.5,30.19,NW,321,0.0,0.0,84,0.00,,,0.00,Wunderground v.1.15,2013-03-28 07:32:00,
2013-03-28 03:38:00,29.7,25.5,30.19,NW,321,0.0,0.0,84,0.00,,,0.00,Wunderground v.1.15,2013-03-28 07:38:00,
2013-03-28 03:44:00,29.7,25.5,30.18,NW,321,0.0,0.0,84,0.00,,,0.00,Wunderground v.1.15,2013-03-28 07:44:00,
2013-03-28 03:50:00,29.8,25.6,30.18,NW,321,0.0,0.0,84,0.00,,,0.00,Wunderground v.1.15,2013-03-28 07:50:00,
2013-03-28 03:56:00,29.8,25.6,30.18,NW,321,0.0,0.0,84,0.00,,,0.00,Wunderground v.1.15,2013-03-28 07:56:00,
2013-03-28 04:02:00,29.7,25.7,30.18,NW,321,0.0,0.0,85,0.00,,,0.00,Wunderground v.1.15,2013-03-28 08:02:00,
2013-03-28 04:08:00,29.7,25.7,30.18,NW,321,0.0,0.0,85,0.00,,,0.00,Wunderground v.1.15,2013-03-28 08:08:00,
2013-03-28 04:14:00,29.6,25.6,30.18,NW,321,0.0,0.0,85,0.00,,,0.00,Wunderground v.1.15,2013-03-28 08:14:00,
2013-03-28 04:20:00,29.5,25.5,30.18,NW,321,0.0,0.0,85,0.00,,,0.00,Wunderground v.1.15,2013-03-28 08:20:00,
2013-03-28 04:26:00,29.5,25.5,30.18,NW,321,0.0,0.0,85,0.00,,,0.00,Wunderground v.1.15,2013-03-28 08:26:00,
2013-03-28 04:32:00,29.4,25.4,30.18,NW,321,0.0,0.0,85,0.00,,,0.00,Wunderground v.1.15,2013-03-28 08:32:00,
2013-03-28 04:38:00,29.4,26.0,30.18,NW,321,0.0,1.0,87,0.00,,,0.00,Wunderground v.1.15,2013-03-28 08:38:00,
2013-03-28 04:44:00,29.5,25.8,30.18,NW,321,0.0,0.0,86,0.00,,,0.00,Wunderground v.1.15,2013-03-28 08:44:00,
2013-03-28 04:50:00,29.5,25.8,30.18,NW,321,0.0,0.0,86,0.00,,,0.00,Wunderground v.1.15,2013-03-28 08:50:00,
2013-03-28 04:56:00,29.5,25.8,30.18,NW,321,0.0,0.0,86,0.00,,,0.00,Wunderground v.1.15,2013-03-28 08:56:00,
2013-03-28 05:02:00,29.5,25.8,30.18,NW,321,0.0,0.0,86,0.00,,,0.00,Wunderground v.1.15,2013-03-28 09:02:00,
2013-03-28 05:08:00,29.4,25.7,30.18,NW,321,0.0,0.0,86,0.00,,,0.00,Wunderground v.1.15,2013-03-28 09:08:00,
2013-03-28 05:14:00,29.3,25.6,30.18,NW,321,0.0,0.0,86,0.00,,,0.00,Wunderground v.1.15,2013-03-28 09:14:00,
2013-03-28 05:20:00,29.2,25.5,30.18,NW,321,0.0,0.0,86,0.00,,,0.00,Wunderground v.1.15,2013-03-28 09:20:00,
2013-03-28 05:26:00,29.1,25.4,30.18,NW,321,0.0,0.0,86,0.00,,,0.00,Wunderground v.1.15,2013-03-28 09:26:00,
2013-03-28 05:32:00,29.0,25.3,30.18,NW,321,0.0,0.0,86,0.00,,,0.00,Wunderground v.1.15,2013-03-28 09:32:00,
2013-03-28 05:38:00,28.9,25.5,30.18,NW,321,0.0,0.0,87,0.00,,,0.00,Wunderground v.1.15,2013-03-28 09:38:00,
2013-03-28 05:44:00,28.8,25.1,30.18,NW,321,0.0,0.0,86,0.00,,,0.00,Wunderground v.1.15,2013-03-28 09:44:00,
2013-03-28 05:50:00,28.7,25.0,30.18,NW,321,0.0,0.0,86,0.00,,,0.00,Wunderground v.1.15,2013-03-28 09:50:00,
2013-03-28 05:56:00,28.7,25.0,30.18,NW,321,0.0,0.0,86,0.00,,,0.00,Wunderground v.1.15,2013-03-28 09:56:00,
2013-03-28 06:02:00,28.5,25.1,30.18,NW,321,0.0,0.0,87,0.00,,,0.00,Wunderground v.1.15,2013-03-28 10:02:00,
2013-03-28 06:08:00,28.5,25.1,30.18,NW,321,0.0,0.0,87,0.00,,,0.00,Wunderground v.1.15,2013-03-28 10:08:00,
2013-03-28 06:14:00,28.4,25.0,30.18,NW,321,0.0,0.0,87,0.00,,,0.00,Wunderground v.1.15,2013-03-28 10:14:00,
2013-03-28 06:20:00,28.4,25.3,30.18,NW,321,0.0,0.0,88,0.00,,,0.00,Wunderground v.1.15,2013-03-28 10:20:00,
2013-03-28 06:26:00,28.3,25.2,30.18,NW,321,0.0,0.0,88,0.00,,,0.00,Wunderground v.1.15,2013-03-28 10:26:00,
2013-03-28 06:32:00,28.3,25.2,30.18,NW,321,0.0,0.0,88,0.00,,,0.00,Wunderground v.1.15,2013-03-28 10:32:00,
2013-03-28 06:38:00,28.2,25.1,30.18,NW,321,0.0,0.0,88,0.00,,,0.00,Wunderground v.1.15,2013-03-28 10:38:00,
2013-03-28 06:44:00,28.1,25.0,30.18,NW,321,0.0,0.0,88,0.00,,,0.00,Wunderground v.1.15,2013-03-28 10:44:00,
2013-03-28 06:50:00,28.0,25.2,30.18,NW,321,0.0,0.0,89,0.00,,,0.00,Wunderground v.1.15,2013-03-28 10:50:00,
2013-03-28 06:56:00,28.0,25.2,30.19,NW,321,0.0,0.0,89,0.00,,,0.00,Wunderground v.1.15,2013-03-28 10:56:00,
2013-03-28 07:02:00,27.9,25.1,30.18,NW,321,0.0,0.0,89,0.00,,,0.00,Wunderground v.1.15,2013-03-28 11:02:00,
2013-03-28 07:08:00,27.7,24.9,30.19,NW,321,0.0,0.0,89,0.00,,,0.00,Wunderground v.1.15,2013-03-28 11:08:00,
2013-03-28 07:14:00,27.6,24.8,30.19,NW,321,0.0,0.0,89,0.00,,,0.00,Wunderground v.1.15,2013-03-28 11:14:00,
2013-03-28 07:20:00,27.5,25.0,30.19,NW,321,0.0,0.0,90,0.00,,,0.00,Wunderground v.1.15,2013-03-28 11:20:00,
2013-03-28 07:26:00,27.5,25.2,30.19,NW,321,0.0,0.0,91,0.00,,,0.00,Wunderground v.1.15,2013-03-28 11:26:00,
2013-03-28 07:32:00,27.4,24.9,30.19,NW,321,0.0,0.0,90,0.00,,,0.00,Wunderground v.1.15,2013-03-28 11:32:00,
2013-03-28 07:38:00,27.4,24.9,30.20,NW,321,0.0,0.0,90,0.00,,,0.00,Wunderground v.1.15,2013-03-28 11:38:00,
2013-03-28 07:44:00,27.4,25.1,30.20,NW,321,0.0,0.0,91,0.00,,,0.00,Wunderground v.1.15,2013-03-28 11:44:00,
2013-03-28 07:50:00,27.5,25.2,30.20,NW,321,0.0,0.0,91,0.00,,,0.00,Wunderground v.1.15,2013-03-28 11:50:00,
2013-03-28 07:56:00,27.6,25.6,30.20,NW,321,0.0,0.0,92,0.00,,,0.00,Wunderground v.1.15,2013-03-28 11:56:00,
2013-03-28 08:02:00,27.7,25.7,30.20,NW,321,0.0,0.0,92,0.00,,,0.00,Wunderground v.1.15,2013-03-28 12:02:00,
2013-03-28 08:10:00,28.3,26.3,30.20,NW,321,0.0,0.0,92,0.00,,,0.00,Wunderground v.1.15,2013-03-28 12:10:00,
2013-03-28 08:16:00,29.0,27.0,30.20,NW,321,0.0,0.0,92,0.00,,,0.00,Wunderground v.1.15,2013-03-28 12:16:00,
2013-03-28 08:22:00,29.8,27.8,30.20,NW,321,0.0,0.0,92,0.00,,,0.00,Wunderground v.1.15,2013-03-28 12:22:00,
2013-03-28 08:28:00,31.0,28.7,30.20,NW,321,0.0,0.0,91,0.00,,,0.00,Wunderground v.1.15,2013-03-28 12:28:00,
2013-03-28 08:34:00,32.4,29.8,30.20,NNW,346,0.0,1.0,90,0.00,,,0.00,Wunderground v.1.15,2013-03-28 12:34:00,
2013-03-28 08:40:00,33.7,30.2,30.20,West,277,0.0,0.0,87,0.00,,,0.00,Wunderground v.1.15,2013-03-28 12:40:00,
2013-03-28 08:46:00,35.3,30.7,30.20,NNE,26,0.0,1.0,83,0.00,,,0.00,Wunderground v.1.15,2013-03-28 12:46:00,
2013-03-28 08:52:00,36.5,30.9,30.21,NE,54,0.0,1.0,80,0.00,,,0.00,Wunderground v.1.15,2013-03-28 12:52:00,
2013-03-28 08:58:00,37.5,30.6,30.21,NNE,15,1.0,2.0,76,0.00,,,0.00,Wunderground v.1.15,2013-03-28 12:58:00,
2013-03-28 09:04:00,38.7,30.8,30.21,ENE,57,1.0,3.0,73,0.00,,,0.00,Wunderground v.1.15,2013-03-28 13:04:00,
2013-03-28 09:10:00,39.5,30.5,30.21,NNE,15,2.0,3.0,70,0.00,,,0.00,Wunderground v.1.15,2013-03-28 13:10:00,
2013-03-28 09:16:00,40.2,30.5,30.21,North,5,2.0,3.0,68,0.00,,,0.00,Wunderground v.1.15,2013-03-28 13:16:00,
2013-03-28 09:22:00,41.0,30.9,30.21,East,93,1.0,3.0,67,0.00,,,0.00,Wunderground v.1.15,2013-03-28 13:22:00,
2013-03-28 09:28:00,41.5,29.8,30.21,WNW,303,2.0,5.0,63,0.00,,,0.00,Wunderground v.1.15,2013-03-28 13:28:00,
2013-03-28 09:34:00,42.0,30.3,30.22,North,351,2.0,2.0,63,0.00,,,0.00,Wunderground v.1.15,2013-03-28 13:34:00,
2013-03-28 09:40:00,42.7,29.8,30.21,North,5,2.0,2.0,60,0.00,,,0.00,Wunderground v.1.15,2013-03-28 13:40:00,
2013-03-28 09:46:00,43.3,29.5,30.21,NE,43,2.0,2.0,58,0.00,,,0.00,Wunderground v.1.15,2013-03-28 13:46:00,
2013-03-28 09:52:00,44.0,28.9,30.21,WNW,293,3.0,8.0,55,0.00,,,0.00,Wunderground v.1.15,2013-03-28 13:52:00,
2013-03-28 09:58:00,44.3,28.2,30.21,North,360,4.0,9.0,53,0.00,,,0.00,Wunderground v.1.15,2013-03-28 13:58:00,
2013-03-28 10:04:00,44.8,28.2,30.21,NW,314,4.0,4.0,52,0.00,,,0.00,Wunderground v.1.15,2013-03-28 14:04:00,
2013-03-28 10:10:00,45.4,27.8,30.21,NE,38,3.0,5.0,50,0.00,,,0.00,Wunderground v.1.15,2013-03-28 14:10:00,
2013-03-28 10:16:00,45.6,26.5,30.21,NE,49,4.0,6.0,47,0.00,,,0.00,Wunderground v.1.15,2013-03-28 14:16:00,
2013-03-28 10:22:00,45.9,27.8,30.21,East,100,5.0,5.0,49,0.00,,,0.00,Wunderground v.1.15,2013-03-28 14:22:00,
2013-03-28 10:28:00,46.2,26.5,30.21,NE,46,5.0,7.0,46,0.00,,,0.00,Wunderground v.1.15,2013-03-28 14:28:00,
2013-03-28 10:34:00,46.4,26.7,30.22,ENE,61,5.0,8.0,46,0.00,,,0.00,Wunderground v.1.15,2013-03-28 14:34:00,
2013-03-28 10:40:00,46.6,26.4,30.22,NW,320,4.0,4.0,45,0.00,,,0.00,Wunderground v.1.15,2013-03-28 14:40:00,
2013-03-28 10:46:00,46.8,26.0,30.21,NW,317,4.0,7.0,44,0.00,,,0.00,Wunderground v.1.15,2013-03-28 14:46:00,
2013-03-28 10:52:00,46.8,25.5,30.21,NE,56,5.0,5.0,43,0.00,,,0.00,Wunderground v.1.15,2013-03-28 14:52:00,
2013-03-28 10:58:00,47.1,26.8,30.21,West,275,4.0,6.0,45,0.00,,,0.00,Wunderground v.1.15,2013-03-28 14:58:00,
2013-03-28 11:04:00,47.6,27.3,30.21,NE,49,4.0,6.0,45,0.00,,,0.00,Wunderground v.1.15,2013-03-28 15:04:00,
2013-03-28 11:10:00,48.0,26.5,30.21,NW,311,3.0,7.0,43,0.00,,,0.00,Wunderground v.1.15,2013-03-28 15:10:00,
2013-03-28 11:16:00,47.9,25.3,30.21,NE,34,5.0,7.0,41,0.00,,,0.00,Wunderground v.1.15,2013-03-28 15:16:00,
2013-03-28 11:22:00,48.1,26.6,30.21,NNW,338,4.0,5.0,43,0.00,,,0.00,Wunderground v.1.15,2013-03-28 15:22:00,
2013-03-28 11:28:00,48.3,25.7,30.21,ENE,67,3.0,9.0,41,0.00,,,0.00,Wunderground v.1.15,2013-03-28 15:28:00,
2013-03-28 11:34:00,48.6,26.5,30.21,NNE,17,3.0,4.0,42,0.00,,,0.00,Wunderground v.1.15,2013-03-28 15:34:00,
2013-03-28 11:40:00,49.3,26.6,30.20,NE,40,3.0,3.0,41,0.00,,,0.00,Wunderground v.1.15,2013-03-28 15:40:00,
2013-03-28 11:46:00,49.2,25.3,30.20,ENE,63,4.0,7.0,39,0.00,,,0.00,Wunderground v.1.15,2013-03-28 15:46:00,
2013-03-28 11:52:00,49.6,26.8,30.20,NE,44,4.0,6.0,41,0.00,,,0.00,Wunderground v.1.15,2013-03-28 15:52:00,
2013-03-28 11:58:00,49.7,25.7,30.20,NNE,26,4.0,7.0,39,0.00,,,0.00,Wunderground v.1.15,2013-03-28 15:58:00,
2013-03-28 12:04:00,50.1,26.7,30.20,North,355,3.0,4.0,40,0.00,,,0.00,Wunderground v.1.15,2013-03-28 16:04:00,
2013-03-28 12:10:00,50.6,27.1,30.20,WSW,244,3.0,3.0,40,0.00,,,0.00,Wunderground v.1.15,2013-03-28 16:10:00,
2013-03-28 12:16:00,50.9,26.2,30.19,North,355,3.0,3.0,38,0.00,,,0.00,Wunderground v.1.15,2013-03-28 16:16:00,
2013-03-28 12:22:00,51.4,26.0,30.19,ENE,59,3.0,5.0,37,0.00,,,0.00,Wunderground v.1.15,2013-03-28 16:22:00,
2013-03-28 12:28:00,50.5,25.8,30.19,NW,319,4.0,6.0,38,0.00,,,0.00,Wunderground v.1.15,2013-03-28 16:28:00,
2013-03-28 12:34:00,50.9,26.2,30.19,NNW,344,4.0,4.0,38,0.00,,,0.00,Wunderground v.1.15,2013-03-28 16:34:00,
2013-03-28 12:40:00,51.3,27.2,30.19,NE,47,3.0,3.0,39,0.00,,,0.00,Wunderground v.1.15,2013-03-28 16:40:00,
2013-03-28 12:46:00,51.4,26.6,30.19,SSW,211,3.0,3.0,38,0.00,,,0.00,Wunderground v.1.15,2013-03-28 16:46:00,
2013-03-28 12:52:00,51.9,26.4,30.18,NW,306,3.0,3.0,37,0.00,,,0.00,Wunderground v.1.15,2013-03-28 16:52:00,
2013-03-28 12:58:00,52.3,26.8,30.18,WSW,257,2.0,4.0,37,0.00,,,0.00,Wunderground v.1.15,2013-03-28 16:58:00,
2013-03-28 13:04:00,52.1,25.3,30.18,ESE,104,3.0,3.0,35,0.00,,,0.00,Wunderground v.1.15,2013-03-28 17:04:00,
2013-03-28 13:10:00,52.0,27.1,30.18,WNW,298,4.0,4.0,38,0.00,,,0.00,Wunderground v.1.15,2013-03-28 17:10:00,
2013-03-28 13:16:00,52.4,26.2,30.17,SW,230,2.0,4.0,36,0.00,,,0.00,Wunderground v.1.15,2013-03-28 17:16:00,
2013-03-28 13:22:00,52.2,26.7,30.17,NNW,331,2.0,3.0,37,0.00,,,0.00,Wunderground v.1.15,2013-03-28 17:22:00,
2013-03-28 13:28:00,52.9,28.0,30.17,SE,124,2.0,7.0,38,0.00,,,0.00,Wunderground v.1.15,2013-03-28 17:28:00,
2013-03-28 13:34:00,53.3,27.7,30.17,NNE,13,2.0,2.0,37,0.00,,,0.00,Wunderground v.1.15,2013-03-28 17:34:00,
2013-03-28 13:40:00,53.7,28.0,30.16,SSW,210,3.0,4.0,37,0.00,,,0.00,Wunderground v.1.15,2013-03-28 17:40:00,
2013-03-28 13:46:00,53.7,28.0,30.16,ESE,104,3.0,4.0,37,0.00,,,0.00,Wunderground v.1.15,2013-03-28 17:46:00,
2013-03-28 13:52:00,54.3,28.6,30.16,NNW,331,2.0,3.0,37,0.00,,,0.00,Wunderground v.1.15,2013-03-28 17:52:00,
2013-03-28 13:58:00,54.4,27.3,30.16,West,259,3.0,3.0,35,0.00,,,0.00,Wunderground v.1.15,2013-03-28 17:58:00,
2013-03-28 14:04:00,54.6,26.8,30.15,NW,315,3.0,4.0,34,0.00,,,0.00,Wunderground v.1.15,2013-03-28 18:04:00,
2013-03-28 14:10:00,54.8,29.7,30.15,NNE,29,3.0,4.0,38,0.00,,,0.00,Wunderground v.1.15,2013-03-28 18:10:00,
2013-03-28 14:16:00,55.0,27.1,30.15,NE,49,3.0,4.0,34,0.00,,,0.00,Wunderground v.1.15,2013-03-28 18:16:00,
2013-03-28 14:22:00,55.1,26.5,30.15,SE,127,2.0,3.0,33,0.00,,,0.00,Wunderground v.1.15,2013-03-28 18:22:00,
2013-03-28 14:28:00,54.8,26.2,30.15,NW,310,3.0,6.0,33,0.00,,,0.00,Wunderground v.1.15,2013-03-28 18:28:00,
2013-03-28 14:34:00,54.6,27.5,30.15,East,79,4.0,6.0,35,0.00,,,0.00,Wunderground v.1.15,2013-03-28 18:34:00,
2013-03-28 14:40:00,55.1,25.0,30.15,NNE,28,4.0,4.0,31,0.00,,,0.00,Wunderground v.1.15,2013-03-28 18:40:00,
2013-03-28 14:46:00,55.4,26.7,30.15,ENE,78,3.0,4.0,33,0.00,,,0.00,Wunderground v.1.15,2013-03-28 18:46:00,
2013-03-28 14:52:00,55.2,25.8,30.15,NE,34,3.0,5.0,32,0.00,,,0.00,Wunderground v.1.15,2013-03-28 18:52:00,
2013-03-28 14:58:00,55.3,28.1,30.14,NE,49,3.0,5.0,35,0.00,,,0.00,Wunderground v.1.15,2013-03-28 18:58:00,
2013-03-28 15:04:00,55.7,27.0,30.14,NNW,348,4.0,6.0,33,0.00,,,0.00,Wunderground v.1.15,2013-03-28 19:04:00,
2013-03-28 15:10:00,56.2,25.1,30.14,WNW,303,3.0,3.0,30,0.00,,,0.00,Wunderground v.1.15,2013-03-28 19:10:00,
2013-03-28 15:16:00,56.2,25.1,30.14,NE,34,3.0,4.0,30,0.00,,,0.00,Wunderground v.1.15,2013-03-28 19:16:00,
2013-03-28 15:22:00,56.0,25.0,30.14,NNE,22,4.0,4.0,30,0.00,,,0.00,Wunderground v.1.15,2013-03-28 19:22:00,
2013-03-28 15:28:00,56.5,26.2,30.13,ENE,78,3.0,6.0,31,0.00,,,0.00,Wunderground v.1.15,2013-03-28 19:28:00,
2013-03-28 15:34:00,56.9,24.9,30.13,ENE,65,3.0,3.0,29,0.00,,,0.00,Wunderground v.1.15,2013-03-28 19:34:00,
2013-03-28 15:40:00,56.7,24.8,30.13,NW,316,3.0,4.0,29,0.00,,,0.00,Wunderground v.1.15,2013-03-28 19:40:00,
2013-03-28 15:46:00,56.6,24.7,30.13,NNE,16,4.0,8.0,29,0.00,,,0.00,Wunderground v.1.15,2013-03-28 19:46:00,
2013-03-28 15:52:00,56.2,25.1,30.13,WNW,291,5.0,5.0,30,0.00,,,0.00,Wunderground v.1.15,2013-03-28 19:52:00,
2013-03-28 15:58:00,56.5,26.2,30.13,ENE,65,3.0,5.0,31,0.00,,,0.00,Wunderground v.1.15,2013-03-28 19:58:00,
2013-03-28 16:04:00,57.3,25.3,30.13,WNW,302,2.0,3.0,29,0.00,,,0.00,Wunderground v.1.15,2013-03-28 20:04:00,
2013-03-28 16:10:00,57.7,27.2,30.13,NE,46,3.0,3.0,31,0.00,,,0.00,Wunderground v.1.15,2013-03-28 20:10:00,
2013-03-28 16:16:00,57.5,26.3,30.13,NW,319,3.0,4.0,30,0.00,,,0.00,Wunderground v.1.15,2013-03-28 20:16:00,
2013-03-28 16:22:00,57.0,25.8,30.12,NNE,19,2.0,4.0,30,0.00,,,0.00,Wunderground v.1.15,2013-03-28 20:22:00,
2013-03-28 16:28:00,56.5,26.2,30.13,ENE,67,4.0,5.0,31,0.00,,,0.00,Wunderground v.1.15,2013-03-28 20:28:00,
2013-03-28 16:34:00,56.1,25.8,30.13,WNW,289,5.0,8.0,31,0.00,,,0.00,Wunderground v.1.15,2013-03-28 20:34:00,
2013-03-28 16:40:00,56.1,25.8,30.13,NW,320,4.0,4.0,31,0.00,,,0.00,Wunderground v.1.15,2013-03-28 20:40:00,
2013-03-28 16:46:00,55.7,25.5,30.13,NW,313,5.0,8.0,31,0.00,,,0.00,Wunderground v.1.15,2013-03-28 20:46:00,
2013-03-28 16:52:00,55.4,26.7,30.13,ENE,58,4.0,4.0,33,0.00,,,0.00,Wunderground v.1.15,2013-03-28 20:52:00,
2013-03-28 16:58:00,55.3,25.1,30.12,NNE,26,3.0,6.0,31,0.00,,,0.00,Wunderground v.1.15,2013-03-28 20:58:00,
2013-03-28 17:04:00,55.4,26.7,30.13,ENE,57,3.0,5.0,33,0.00,,,0.00,Wunderground v.1.15,2013-03-28 21:04:00,
2013-03-28 17:10:00,55.4,26.0,30.13,NE,36,3.0,3.0,32,0.00,,,0.00,Wunderground v.1.15,2013-03-28 21:10:00,
2013-03-28 17:16:00,55.5,26.8,30.13,NW,309,3.0,4.0,33,0.00,,,0.00,Wunderground v.1.15,2013-03-28 21:16:00,
2013-03-28 17:22:00,55.7,27.0,30.13,NNE,19,3.0,4.0,33,0.00,,,0.00,Wunderground v.1.15,2013-03-28 21:22:00,
2013-03-28 17:28:00,55.7,26.3,30.13,NE,38,4.0,6.0,32,0.00,,,0.00,Wunderground v.1.15,2013-03-28 21:28:00,
2013-03-28 17:34:00,55.5,26.1,30.13,NNW,342,4.0,5.0,32,0.00,,,0.00,Wunderground v.1.15,2013-03-28 21:34:00,
2013-03-28 17:40:00,55.3,27.4,30.13,NNE,13,3.0,4.0,34,0.00,,,0.00,Wunderground v.1.15,2013-03-28 21:40:00,
2013-03-28 17:46:00,55.3,26.7,30.14,SE,146,3.0,4.0,33,0.00,,,0.00,Wunderground v.1.15,2013-03-28 21:46:00,
2013-03-28 17:52:00,55.0,25.6,30.14,East,82,3.0,3.0,32,0.00,,,0.00,Wunderground v.1.15,2013-03-28 21:52:00,
2013-03-28 17:58:00,54.7,26.8,30.14,NE,40,3.0,10.0,34,0.00,,,0.00,Wunderground v.1.15,2013-03-28 21:58:00,
2013-03-28 18:04:00,54.6,26.8,30.14,NE,40,3.0,5.0,34,0.00,,,0.00,Wunderground v.1.15,2013-03-28 22:04:00,
2013-03-28 18:10:00,54.3,26.5,30.14,ENE,63,4.0,4.0,34,0.00,,,0.00,Wunderground v.1.15,2013-03-28 22:10:00,
2013-03-28 18:16:00,54.2,26.4,30.14,NE,43,3.0,6.0,34,0.00,,,0.00,Wunderground v.1.15,2013-03-28 22:16:00,
2013-03-28 18:22:00,54.1,27.0,30.15,NW,319,3.0,5.0,35,0.00,,,0.00,Wunderground v.1.15,2013-03-28 22:22:00,
2013-03-28 18:28:00,54.0,26.9,30.15,NE,53,3.0,5.0,35,0.00,,,0.00,Wunderground v.1.15,2013-03-28 22:28:00,
2013-03-28 18:34:00,53.8,26.8,30.15,NNE,29,3.0,3.0,35,0.00,,,0.00,Wunderground v.1.15,2013-03-28 22:34:00,
2013-03-28 18:40:00,53.5,26.5,30.16,NNE,30,3.0,6.0,35,0.00,,,0.00,Wunderground v.1.15,2013-03-28 22:40:00,
2013-03-28 18:46:00,53.3,26.3,30.16,NNE,19,3.0,6.0,35,0.00,,,0.00,Wunderground v.1.15,2013-03-28 22:46:00,
2013-03-28 18:52:00,53.2,26.2,30.16,NNE,16,4.0,8.0,35,0.00,,,0.00,Wunderground v.1.15,2013-03-28 22:52:00,
2013-03-28 18:58:00,53.0,26.0,30.16,NNE,32,5.0,8.0,35,0.00,,,0.00,Wunderground v.1.15,2013-03-28 22:58:00,
2013-03-28 19:04:00,52.7,26.5,30.16,NNE,30,3.0,4.0,36,0.00,,,0.00,Wunderground v.1.15,2013-03-28 23:04:00,
2013-03-28 19:10:00,52.4,26.9,30.17,NW,312,3.0,3.0,37,0.00,,,0.00,Wunderground v.1.15,2013-03-28 23:10:00,
2013-03-28 19:16:00,52.1,25.9,30.17,NNE,14,3.0,3.0,36,0.00,,,0.00,Wunderground v.1.15,2013-03-28 23:16:00,
2013-03-28 19:22:00,51.9,26.4,30.17,NNW,329,3.0,3.0,37,0.00,,,0.00,Wunderground v.1.15,2013-03-28 23:22:00,
2013-03-28 19:28:00,51.6,26.8,30.17,NNW,339,2.0,4.0,38,0.00,,,0.00,Wunderground v.1.15,2013-03-28 23:28:00,
2013-03-28 19:34:00,51.3,26.5,30.18,NNE,26,1.0,2.0,38,0.00,,,0.00,Wunderground v.1.15,2013-03-28 23:34:00,
2013-03-28 19:40:00,50.9,26.8,30.18,NNW,331,1.0,2.0,39,0.00,,,0.00,Wunderground v.1.15,2013-03-28 23:40:00,
2013-03-28 19:46:00,50.5,27.0,30.18,NE,45,1.0,2.0,40,0.00,,,0.00,Wunderground v.1.15,2013-03-28 23:46:00,
2013-03-28 19:52:00,50.2,26.8,30.18,NE,41,1.0,1.0,40,0.00,,,0.00,Wunderground v.1.15,2013-03-28 23:52:00,
2013-03-28 19:58:00,49.8,27.0,30.19,North,360,0.0,2.0,41,0.00,,,0.00,Wunderground v.1.15,2013-03-28 23:58:00,
2013-03-28 20:04:00,49.4,27.2,30.19,NNE,22,1.0,2.0,42,0.00,,,0.00,Wunderground v.1.15,2013-03-29 00:04:00,
2013-03-28 20:10:00,49.2,26.5,30.19,NNE,22,1.0,1.0,41,0.00,,,0.00,Wunderground v.1.15,2013-03-29 00:10:00,
2013-03-28 20:16:00,48.9,26.8,30.19,NNE,22,0.0,1.0,42,0.00,,,0.00,Wunderground v.1.15,2013-03-29 00:16:00,
2013-03-28 20:22:00,48.5,27.0,30.20,NNE,22,0.0,0.0,43,0.00,,,0.00,Wunderground v.1.15,2013-03-29 00:22:00,
2013-03-28 20:28:00,48.1,27.2,30.20,NNE,22,0.0,1.0,44,0.00,,,0.00,Wunderground v.1.15,2013-03-29 00:28:00,
2013-03-28 20:34:00,47.9,27.0,30.20,NNE,22,0.0,0.0,44,0.00,,,0.00,Wunderground v.1.15,2013-03-29 00:34:00,
2013-03-28 20:40:00,47.6,26.7,30.21,NE,42,1.0,1.0,44,0.00,,,0.00,Wunderground v.1.15,2013-03-29 00:40:00,
2013-03-28 20:46:00,47.6,26.7,30.21,NE,51,1.0,2.0,44,0.00,,,0.00,Wunderground v.1.15,2013-03-29 00:46:00,
2013-03-28 20:52:00,47.6,26.7,30.21,NE,48,1.0,2.0,44,0.00,,,0.00,Wunderground v.1.15,2013-03-29 00:52:00,
2013-03-28 20:58:00,47.5,26.6,30.22,NNE,27,1.0,2.0,44,0.00,,,0.00,Wunderground v.1.15,2013-03-29 00:58:00,
2013-03-28 21:04:00,47.4,26.0,30.22,NNE,31,1.0,1.0,43,0.00,,,0.00,Wunderground v.1.15,2013-03-29 01:04:00,
2013-03-28 21:10:00,47.3,26.5,30.22,NNE,30,1.0,1.0,44,0.00,,,0.00,Wunderground v.1.15,2013-03-29 01:10:00,
2013-03-28 21:16:00,47.1,26.3,30.22,North,5,1.0,1.0,44,0.00,,,0.00,Wunderground v.1.15,2013-03-29 01:16:00,
2013-03-28 21:22:00,47.1,26.3,30.22,ENE,61,2.0,3.0,44,0.00,,,0.00,Wunderground v.1.15,2013-03-29 01:22:00,
2013-03-28 21:28:00,47.2,26.4,30.23,NNE,24,3.0,5.0,44,0.00,,,0.00,Wunderground v.1.15,2013-03-29 01:28:00,
2013-03-28 21:34:00,47.2,26.4,30.23,ENE,57,3.0,3.0,44,0.00,,,0.00,Wunderground v.1.15,2013-03-29 01:34:00,
2013-03-28 21:40:00,47.1,26.3,30.23,North,5,3.0,3.0,44,0.00,,,0.00,Wunderground v.1.15,2013-03-29 01:40:00,
2013-03-28 21:46:00,46.9,26.1,30.23,NNW,334,2.0,3.0,44,0.00,,,0.00,Wunderground v.1.15,2013-03-29 01:46:00,
2013-03-28 21:52:00,46.8,26.6,30.24,NNE,31,2.0,4.0,45,0.00,,,0.00,Wunderground v.1.15,2013-03-29 01:52:00,
2013-03-28 21:58:00,46.7,25.9,30.24,NNE,22,2.0,4.0,44,0.00,,,0.00,Wunderground v.1.15,2013-03-29 01:58:00,
2013-03-28 22:04:00,46.5,25.7,30.24,NNE,27,2.0,3.0,44,0.00,,,0.00,Wunderground v.1.15,2013-03-29 02:04:00,
2013-03-28 22:10:00,46.5,25.7,30.24,NNE,28,2.0,2.0,44,0.00,,,0.00,Wunderground v.1.15,2013-03-29 02:10:00,
2013-03-28 22:16:00,46.3,26.1,30.25,NE,41,2.0,4.0,45,0.00,,,0.00,Wunderground v.1.15,2013-03-29 02:16:00,
2013-03-28 22:22:00,46.1,26.4,30.25,NNE,26,2.0,2.0,46,0.00,,,0.00,Wunderground v.1.15,2013-03-29 02:22:00,
2013-03-28 22:28:00,45.8,26.7,30.25,NNE,14,1.0,3.0,47,0.00,,,0.00,Wunderground v.1.15,2013-03-29 02:28:00,
2013-03-28 22:34:00,45.6,26.0,30.25,NNE,22,1.0,1.0,46,0.00,,,0.00,Wunderground v.1.15,2013-03-29 02:34:00,
2013-03-28 22:40:00,45.4,26.3,30.25,NNE,22,1.0,1.0,47,0.00,,,0.00,Wunderground v.1.15,2013-03-29 02:40:00,
2013-03-28 22:46:00,45.0,26.0,30.26,NNE,22,1.0,1.0,47,0.00,,,0.00,Wunderground v.1.15,2013-03-29 02:46:00,
2013-03-28 22:52:00,44.7,26.7,30.26,NNE,22,0.0,0.0,49,0.00,,,0.00,Wunderground v.1.15,2013-03-29 02:52:00,
2013-03-28 22:58:00,44.2,26.7,30.26,NNE,22,0.0,1.0,50,0.00,,,0.00,Wunderground v.1.15,2013-03-29 02:58:00,
2013-03-28 23:04:00,43.7,26.3,30.26,NNE,22,0.0,0.0,50,0.00,,,0.00,Wunderground v.1.15,2013-03-29 03:04:00,
2013-03-28 23:10:00,43.4,26.5,30.26,NNE,22,0.0,0.0,51,0.00,,,0.00,Wunderground v.1.15,2013-03-29 03:10:00,
2013-03-28 23:16:00,43.2,26.3,30.26,NNE,22,0.0,1.0,51,0.00,,,0.00,Wunderground v.1.15,2013-03-29 03:16:00,
2013-03-28 23:22:00,42.8,28.2,30.26,NNE,22,0.0,0.0,56,0.00,,,0.00,Wunderground v.1.15,2013-03-29 03:22:00,
2013-03-28 23:28:00,42.2,28.0,30.26,NNE,22,0.0,0.0,57,0.00,,,0.00,Wunderground v.1.15,2013-03-29 03:28:00,
2013-03-28 23:34:00,41.4,26.9,30.26,NNE,22,0.0,0.0,56,0.00,,,0.00,Wunderground v.1.15,2013-03-29 03:34:00,
2013-03-28 23:40:00,40.5,26.9,30.26,NNE,22,0.0,0.0,58,0.00,,,0.00,Wunderground v.1.15,2013-03-29 03:40:00,
2013-03-28 23:48:00,39.9,27.1,30.26,NNE,22,0.0,1.0,60,0.00,,,0.00,Wunderground v.1.15,2013-03-29 03:48:00,
2013-03-28 23:54:00,39.6,27.2,30.27,NNE,22,0.0,0.0,61,0.00,,,0.00,Wunderground v.1.15,2013-03-29 03:54:00,